Bartow, FL

2:53 PM EDT on May 28, 2017 (GMT -0400)
Bartow Municipal

Weather History for KBOW - November, 2011

Change the Weather History Date:

Wednesday, November 2, 2011

  Actual Average Record
Temperature  
Mean Temperature 67 °F -  
Max Temperature 78 °F 82 °F 88 °F (1940)
Min Temperature 57 °F 62 °F 41 °F (2014)
Cooling Degree Days 2    
Growing Degree Days 17 (Base 50)    
Moisture  
Dew Point 56 °F    
Average Humidity 83    
Maximum Humidity 100    
Minimum Humidity 42    
Precipitation  
Precipitation 0.00 in - - ()
Sea Level Pressure  
Sea Level Pressure 30.18 in    
Wind  
Wind Speed 5 mph (NNE)    
Max Wind Speed 12 mph    
Max Gust Speed -    
Visibility 13 miles    
Events      
Averages and records for this station are not official NWS values.
T = Trace of Precipitation, MM = Missing Value Source: NWS Daily Summary

Daily Weather History Graph

Daily Weather History Graph

Search for Another Location

Airport or City:

Trip Planner

Search our weather history database for the weather conditions in past years. The results will help you decide how hot, cold, wet, or windy it might be!

Date:

Astronomy

Nov. 02, 2011 Rise Set
Actual Time 7:38 AM EDT 6:42 PM EDT
Civil Twilight 7:14 AM EDT 7:06 PM EDT
Nautical Twilight 6:46 AM EDT 7:34 PM EDT
Astronomical Twilight 6:19 AM EDT 8:01 PM EDT
Moon 1:58 PM EDT (11/2) 12:27 AM EDT (11/2)
Length of Visible Light 11h 51m
Length of Day
11h 03m
Waxing Crescent, 50% of the Moon is Illuminated
Nov 2
Waxing Crescent
Nov 2
First Quarter
Nov 10
Full
Nov 18
Last Quarter
Nov 25
New

Hourly Weather History & Observations

Time (EDT) Temp. Dew Point Humidity Pressure Visibility Wind Dir Wind Speed Gust Speed Precip Events Conditions
12:15 AM 60.8 °F 55.4 °F 82% 30.19 in - NNE 8.1 mph - N/A   Clear
12:55 AM 60.8 °F 55.4 °F 82% 30.18 in - NNE 8.1 mph - N/A   Clear
1:35 AM 60.8 °F 55.4 °F 82% 30.17 in - North 5.8 mph - N/A   Clear
1:55 AM 60.8 °F 55.4 °F 82% 30.17 in - Calm Calm - N/A   Clear
2:15 AM 60.8 °F 55.4 °F 82% 30.17 in - North 4.6 mph - N/A   Clear
2:35 AM 60.8 °F 55.4 °F 82% 30.17 in - Calm Calm - N/A   Clear
2:55 AM 59.0 °F 55.4 °F 88% 30.17 in - Calm Calm - N/A   Unknown
3:15 AM 59.0 °F 55.4 °F 88% 30.16 in - Calm Calm - N/A   Unknown
3:35 AM 59.0 °F 55.4 °F 88% 30.16 in - North 5.8 mph - N/A   Unknown
3:55 AM 59.0 °F 55.4 °F 88% 30.16 in - North - - N/A   Unknown
4:15 AM 57.2 °F 55.4 °F 94% 30.16 in - North 6.9 mph - N/A   Unknown
4:35 AM 57.2 °F 55.4 °F 94% 30.16 in - Calm Calm - N/A   Unknown
5:55 AM 57.2 °F 57.2 °F 100% 30.17 in - North 5.8 mph - N/A   Unknown
6:15 AM 57.2 °F 57.2 °F 100% 30.17 in - NNE 5.8 mph - N/A   Unknown
6:55 AM 57.2 °F 57.2 °F 100% 30.17 in - NNE 6.9 mph - N/A   Unknown
7:15 AM 57.2 °F 57.2 °F 100% 30.18 in - Calm Calm - N/A   Unknown
7:30 AM 57.2 °F 57.2 °F 100% 30.18 in 10.0 mi NNE 5.8 mph - N/A   Clear
7:50 AM 57.2 °F 57.2 °F 100% 30.18 in 10.0 mi NNE 5.8 mph - N/A   Clear
8:55 AM 62.6 °F 59.0 °F 88% 30.20 in 12.0 mi NNE 5.8 mph - N/A   Clear
9:51 AM 68.0 °F 57.2 °F 68% 30.22 in 15.0 mi NE 6.9 mph - N/A   Clear
10:51 AM 71.6 °F 57.2 °F 60% 30.22 in 15.0 mi ENE 11.5 mph - N/A   Clear
11:55 AM 75.2 °F 55.4 °F 50% 30.22 in 15.0 mi ENE 9.2 mph - N/A   Clear
12:52 PM 77.0 °F 55.4 °F 47% 30.20 in 15.0 mi NE 9.2 mph - N/A   Scattered Clouds
2:55 PM 78.8 °F 53.6 °F 42% 30.15 in 15.0 mi NE 11.5 mph - N/A   Scattered Clouds